Location: Ariel
(45.9570°N, 122.5700°W)
Time: 13:06:04
(UTC-07:00)

Vanguard 2 Rocket - Visible Passes

Search period start: 22 August 2019 00:00
Search period end: 01 September 2019 00:00
Orbit: 553 x 3327 km, 32.9° (Epoch: 21 August)

Date Brightness Start Highest point End Pass type
(mag) Time Alt. Az. Time Alt. Az. Time Alt. Az.
22 Aug 9.4 03:16:45 26° S 03:21:21 32° SE 03:35:55 10° E visible
22 Aug 9.7 05:22:32 11° WSW 05:35:58 51° SSE 05:54:50 10° ESE visible
23 Aug 9.7 02:20:27 22° SE 02:21:34 23° SE 02:32:32 10° E visible
23 Aug 9.4 04:26:14 22° SW 04:34:59 45° SSE 04:52:34 10° E visible
24 Aug 10.1 01:24:08 13° ESE 01:24:08 13° ESE 01:27:54 10° ESE visible
24 Aug 9.2 03:29:56 30° S 03:34:30 38° SSE 03:49:59 10° E visible
24 Aug 9.7 05:36:00 10° WSW 05:49:30 52° S 06:08:25 10° ESE visible
25 Aug 9.3 02:33:38 29° SSE 02:34:31 29° SE 02:47:03 10° E visible
25 Aug 9.3 04:39:26 21° SW 04:48:26 49° SSE 05:06:15 10° ESE visible
26 Aug 9.8 01:37:21 19° ESE 01:37:21 19° ESE 01:43:41 10° E visible
26 Aug 9.0 03:43:08 33° SSW 03:47:50 43° SSE 04:03:47 10° E visible
26 Aug 9.7 05:49:52 10° WSW 06:03:05 51° S 06:21:48 10° ESE visible
27 Aug 9.0 02:46:53 34° SSE 02:47:43 35° SSE 03:01:08 10° E visible
27 Aug 9.3 04:52:40 19° WSW 05:02:01 50° S 05:19:46 10° ESE visible
28 Aug 9.5 01:50:38 24° SE 01:50:38 24° SE 01:58:19 10° E visible
28 Aug 8.9 03:56:26 33° SSW 04:01:21 46° SSE 04:17:27 10° ESE visible
29 Aug 10.1 00:54:25 11° ESE 00:54:25 11° ESE 00:55:01 10° ESE visible
29 Aug 8.8 03:00:13 39° S 03:01:08 39° SSE 03:14:58 10° E visible
29 Aug 9.4 05:06:01 17° WSW 05:15:41 48° S 05:33:06 10° ESE visible
30 Aug 9.3 02:04:02 28° SE 02:04:02 28° SE 02:12:27 10° E visible
30 Aug 8.8 04:09:51 31° SW 04:15:01 46° S 04:30:56 10° ESE visible
31 Aug 9.9 01:07:54 14° ESE 01:07:54 14° ESE 01:09:52 10° E visible
31 Aug 8.7 03:13:42 41° S 03:14:44 42° SSE 03:28:38 10° ESE visible
31 Aug 9.4 05:19:30 14° WSW 05:29:24 44° S 05:46:08 10° SE visible
